Time,TemperatureF,DewpointF,PressureIn,WindDirection,WindDirectionDegrees,WindSpeedMPH,WindSpeedGustMPH,Humidity,HourlyPrecipIn,Conditions,Clouds,dailyrainin,SoftwareType,DateUTC
2013-03-11 00:00:00,35.0,34.2,30.31,ESE,112,0.0,0.0,97,0.00,,,0.00,Weather View 32 v70,2013-03-11 04:00:00,
2013-03-11 00:05:00,35.0,34.0,30.32,ESE,112,0.0,0.0,96,0.00,,,0.00,Weather View 32 v70,2013-03-11 04:05:00,
2013-03-11 00:10:00,35.0,34.2,30.32,SE,135,0.0,0.0,97,0.00,,,0.00,Weather View 32 v70,2013-03-11 04:10:00,
2013-03-11 00:15:00,35.0,34.2,30.32,SSW,202,0.0,0.0,97,0.00,,,0.00,Weather View 32 v70,2013-03-11 04:15:00,
2013-03-11 00:20:00,35.0,34.2,30.32,SSW,202,0.0,0.0,97,0.00,,,0.00,Weather View 32 v70,2013-03-11 04:20:00,
2013-03-11 00:25:00,35.0,30.9,30.32,SE,135,0.0,0.0,85,0.00,,,0.00,Weather View 32 v70,2013-03-11 04:25:00,
2013-03-11 00:30:00,35.0,30.9,30.32,SE,135,0.0,0.0,85,0.00,,,0.00,Weather View 32 v70,2013-03-11 04:30:00,
2013-03-11 00:35:00,35.0,30.9,30.32,SSW,202,0.0,0.0,85,0.00,,,0.00,Weather View 32 v70,2013-03-11 04:35:00,
2013-03-11 00:40:00,35.0,30.9,30.32,ENE,68,0.0,0.0,85,0.00,,,0.00,Weather View 32 v70,2013-03-11 04:40:00,
2013-03-11 00:45:00,35.0,30.9,30.32,ESE,112,0.0,0.0,85,0.00,,,0.00,Weather View 32 v70,2013-03-11 04:45:00,
2013-03-11 00:50:00,35.0,30.9,30.32,ESE,112,0.0,0.0,85,0.00,,,0.00,Weather View 32 v70,2013-03-11 04:50:00,
2013-03-11 00:55:00,35.0,30.9,30.31,ESE,112,0.0,0.0,85,0.00,,,0.00,Weather View 32 v70,2013-03-11 04:55:00,
2013-03-11 01:00:00,35.0,30.9,30.31,East,90,0.0,0.0,85,0.00,,,0.00,Weather View 32 v70,2013-03-11 05:00:00,
2013-03-11 01:05:00,35.0,30.9,30.31,ESE,112,0.0,0.0,85,0.00,,,0.00,Weather View 32 v70,2013-03-11 05:05:00,
2013-03-11 01:10:00,34.0,30.3,30.31,ESE,112,0.0,0.0,86,0.00,,,0.00,Weather View 32 v70,2013-03-11 05:10:00,
2013-03-11 01:15:00,34.0,30.3,30.32,South,180,0.0,0.0,86,0.00,,,0.00,Weather View 32 v70,2013-03-11 05:15:00,
2013-03-11 01:20:00,34.0,30.3,30.32,NW,315,0.0,0.0,86,0.00,,,0.00,Weather View 32 v70,2013-03-11 05:20:00,
2013-03-11 01:25:00,34.0,30.3,30.33,SW,225,0.0,0.0,86,0.00,,,0.00,Weather View 32 v70,2013-03-11 05:25:00,
2013-03-11 01:30:00,34.0,30.3,30.33,SW,225,0.0,0.0,86,0.00,,,0.00,Weather View 32 v70,2013-03-11 05:30:00,
2013-03-11 01:35:00,34.0,30.3,30.32,South,180,0.0,0.0,86,0.00,,,0.00,Weather View 32 v70,2013-03-11 05:35:00,
2013-03-11 01:40:00,34.0,30.3,30.32,SE,135,0.0,0.0,86,0.00,,,0.00,Weather View 32 v70,2013-03-11 05:40:00,
2013-03-11 01:45:00,34.0,30.3,30.32,South,180,0.0,0.0,86,0.00,,,0.00,Weather View 32 v70,2013-03-11 05:45:00,
2013-03-11 01:50:00,34.0,30.3,30.32,ENE,68,0.0,0.0,86,0.00,,,0.00,Weather View 32 v70,2013-03-11 05:50:00,
2013-03-11 01:55:00,34.0,30.3,30.32,SE,135,0.0,0.0,86,0.00,,,0.00,Weather View 32 v70,2013-03-11 05:55:00,
2013-03-11 02:00:00,34.0,30.5,30.32,SE,135,0.0,1.0,87,0.00,,,0.00,Weather View 32 v70,2013-03-11 06:00:00,
2013-03-11 02:05:00,34.0,30.5,30.32,East,90,0.0,1.0,87,0.00,,,0.00,Weather View 32 v70,2013-03-11 06:05:00,
2013-03-11 02:10:00,35.0,31.5,30.32,SW,225,0.0,1.0,87,0.00,,,0.00,Weather View 32 v70,2013-03-11 06:10:00,
2013-03-11 02:15:00,35.0,32.4,30.32,SSE,158,0.0,1.0,90,0.00,,,0.00,Weather View 32 v70,2013-03-11 06:15:00,
2013-03-11 02:20:00,35.0,31.8,30.32,SSW,202,0.0,1.0,88,0.00,,,0.00,Weather View 32 v70,2013-03-11 06:20:00,
2013-03-11 02:25:00,35.0,34.7,30.32,SW,225,0.0,1.0,99,0.00,,,0.00,Weather View 32 v70,2013-03-11 06:25:00,
2013-03-11 02:30:00,35.0,34.7,30.32,South,180,0.0,3.0,99,0.00,,,0.00,Weather View 32 v70,2013-03-11 06:30:00,
2013-03-11 02:35:00,35.0,34.7,30.32,SSW,202,0.0,3.0,99,0.00,,,0.00,Weather View 32 v70,2013-03-11 06:35:00,
2013-03-11 02:40:00,35.0,34.7,30.32,SSW,202,0.0,3.0,99,0.00,,,0.00,Weather View 32 v70,2013-03-11 06:40:00,
2013-03-11 02:45:00,35.0,31.5,30.33,SW,225,0.0,3.0,87,0.00,,,0.00,Weather View 32 v70,2013-03-11 06:45:00,
2013-03-11 02:50:00,35.0,31.5,30.33,South,180,0.0,3.0,87,0.00,,,0.00,Weather View 32 v70,2013-03-11 06:50:00,
2013-03-11 02:55:00,36.0,32.5,30.32,South,180,0.0,3.0,87,0.00,,,0.00,Weather View 32 v70,2013-03-11 06:55:00,
2013-03-11 03:00:00,36.0,34.4,30.32,SSW,202,0.0,3.0,94,0.00,,,0.00,Weather View 32 v70,2013-03-11 07:00:00,
2013-03-11 03:05:00,36.0,34.2,30.32,SW,225,0.0,3.0,93,0.00,,,0.00,Weather View 32 v70,2013-03-11 07:05:00,
2013-03-11 03:10:00,36.0,33.6,30.31,SE,135,0.0,3.0,91,0.00,,,0.00,Weather View 32 v70,2013-03-11 07:10:00,
2013-03-11 03:15:00,36.0,33.6,30.31,SSE,158,0.0,3.0,91,0.00,,,0.00,Weather View 32 v70,2013-03-11 07:15:00,
2013-03-11 03:20:00,36.0,33.6,30.30,SE,135,0.0,3.0,91,0.00,,,0.00,Weather View 32 v70,2013-03-11 07:20:00,
2013-03-11 03:25:00,36.0,33.6,30.29,SSE,158,0.0,3.0,91,0.00,,,0.00,Weather View 32 v70,2013-03-11 07:25:00,
2013-03-11 03:30:00,36.0,33.6,30.27,SE,135,0.0,0.0,91,0.00,,,0.00,Weather View 32 v70,2013-03-11 07:30:00,
2013-03-11 03:35:00,36.0,33.6,30.27,ESE,112,0.0,5.0,91,0.00,,,0.00,Weather View 32 v70,2013-03-11 07:35:00,
2013-03-11 03:40:00,36.0,33.6,30.27,South,180,3.0,5.0,91,0.00,,,0.00,Weather View 32 v70,2013-03-11 07:40:00,
2013-03-11 03:45:00,36.0,33.6,30.28,SSE,158,0.0,5.0,91,0.00,,,0.00,Weather View 32 v70,2013-03-11 07:45:00,
2013-03-11 03:50:00,36.0,33.6,30.28,WNW,292,0.0,5.0,91,0.00,,,0.00,Weather View 32 v70,2013-03-11 07:50:00,
2013-03-11 03:55:00,36.0,32.5,30.28,SW,225,2.0,7.0,87,0.00,,,0.00,Weather View 32 v70,2013-03-11 07:55:00,
2013-03-11 04:00:00,36.0,32.5,30.28,NW,315,0.0,7.0,87,0.00,,,0.00,Weather View 32 v70,2013-03-11 08:00:00,
2013-03-11 04:05:00,36.0,32.5,30.27,SW,225,3.0,7.0,87,0.00,,,0.00,Weather View 32 v70,2013-03-11 08:05:00,
2013-03-11 04:10:00,36.0,32.5,30.27,SE,135,0.0,7.0,87,0.00,,,0.00,Weather View 32 v70,2013-03-11 08:10:00,
2013-03-11 04:15:00,36.0,32.5,30.28,SW,225,2.0,7.0,87,0.00,,,0.00,Weather View 32 v70,2013-03-11 08:15:00,
2013-03-11 04:20:00,36.0,32.5,30.28,WSW,248,0.0,7.0,87,0.00,,,0.00,Weather View 32 v70,2013-03-11 08:20:00,
2013-03-11 04:25:00,36.0,32.5,30.28,SW,225,2.0,7.0,87,0.00,,,0.00,Weather View 32 v70,2013-03-11 08:25:00,
2013-03-11 04:30:00,36.0,32.5,30.28,SSE,158,0.0,7.0,87,0.00,,,0.00,Weather View 32 v70,2013-03-11 08:30:00,
2013-03-11 04:35:00,36.0,32.5,30.28,SSW,202,3.0,7.0,87,0.00,,,0.00,Weather View 32 v70,2013-03-11 08:35:00,
2013-03-11 04:40:00,36.0,32.5,30.28,WSW,248,0.0,7.0,87,0.00,,,0.00,Weather View 32 v70,2013-03-11 08:40:00,
2013-03-11 04:45:00,36.0,32.5,30.29,SW,225,0.0,7.0,87,0.00,,,0.00,Weather View 32 v70,2013-03-11 08:45:00,
2013-03-11 04:50:00,36.0,32.5,30.29,West,270,3.0,7.0,87,0.00,,,0.00,Weather View 32 v70,2013-03-11 08:50:00,
2013-03-11 04:55:00,36.0,32.2,30.29,SSW,202,0.0,7.0,86,0.00,,,0.00,Weather View 32 v70,2013-03-11 08:55:00,
2013-03-11 05:00:00,36.0,32.2,30.28,SW,225,2.0,7.0,86,0.00,,,0.00,Weather View 32 v70,2013-03-11 09:00:00,
2013-03-11 05:05:00,36.0,32.2,30.28,South,180,0.0,7.0,86,0.00,,,0.00,Weather View 32 v70,2013-03-11 09:05:00,
2013-03-11 05:10:00,36.0,32.2,30.28,South,180,0.0,7.0,86,0.00,,,0.00,Weather View 32 v70,2013-03-11 09:10:00,
2013-03-11 05:15:00,36.0,32.2,30.28,SW,225,0.0,7.0,86,0.00,,,0.00,Weather View 32 v70,2013-03-11 09:15:00,
2013-03-11 05:20:00,36.0,32.2,30.28,SSE,158,0.0,7.0,86,0.00,,,0.00,Weather View 32 v70,2013-03-11 09:20:00,
2013-03-11 05:25:00,36.0,32.2,30.28,South,180,0.0,7.0,86,0.00,,,0.00,Weather View 32 v70,2013-03-11 09:25:00,
2013-03-11 05:31:00,36.0,32.2,30.28,SSW,202,0.0,7.0,86,0.00,,,0.00,Weather View 32 v70,2013-03-11 09:31:00,
2013-03-11 05:36:00,36.0,32.2,30.28,SE,135,0.0,7.0,86,0.00,,,0.00,Weather View 32 v70,2013-03-11 09:36:00,
2013-03-11 05:41:00,36.0,32.2,30.27,SSE,158,0.0,7.0,86,0.00,,,0.00,Weather View 32 v70,2013-03-11 09:41:00,
2013-03-11 05:46:00,36.0,32.2,30.27,South,180,0.0,7.0,86,0.00,,,0.00,Weather View 32 v70,2013-03-11 09:46:00,
2013-03-11 05:51:00,36.0,32.2,30.27,ENE,68,0.0,7.0,86,0.00,,,0.00,Weather View 32 v70,2013-03-11 09:51:00,
2013-03-11 05:56:00,36.0,32.2,30.28,SSW,202,4.0,7.0,86,0.00,,,0.00,Weather View 32 v70,2013-03-11 09:56:00,
2013-03-11 06:01:00,36.0,32.2,30.27,WNW,292,2.0,7.0,86,0.00,,,0.00,Weather View 32 v70,2013-03-11 10:01:00,
2013-03-11 06:06:00,36.0,32.2,30.28,ESE,112,0.0,7.0,86,0.00,,,0.00,Weather View 32 v70,2013-03-11 10:06:00,
2013-03-11 06:11:00,36.0,34.2,30.28,SSW,202,0.0,7.0,93,0.00,,,0.00,Weather View 32 v70,2013-03-11 10:11:00,
2013-03-11 06:16:00,36.0,35.5,30.27,SE,135,0.0,7.0,98,0.00,,,0.00,Weather View 32 v70,2013-03-11 10:16:00,
2013-03-11 06:21:00,36.0,32.2,30.27,South,180,0.0,7.0,86,0.00,,,0.00,Weather View 32 v70,2013-03-11 10:21:00,
2013-03-11 06:26:00,36.0,32.2,30.27,SSW,202,4.0,7.0,86,0.00,,,0.00,Weather View 32 v70,2013-03-11 10:26:00,
2013-03-11 06:31:00,36.0,32.2,30.26,ESE,112,0.0,7.0,86,0.00,,,0.00,Weather View 32 v70,2013-03-11 10:31:00,
2013-03-11 06:36:00,36.0,32.2,30.27,SW,225,0.0,7.0,86,0.00,,,0.00,Weather View 32 v70,2013-03-11 10:36:00,
2013-03-11 06:41:00,36.0,32.2,30.28,SW,225,0.0,7.0,86,0.00,,,0.00,Weather View 32 v70,2013-03-11 10:41:00,
2013-03-11 06:46:00,36.0,32.2,30.28,SW,225,6.0,7.0,86,0.00,,,0.00,Weather View 32 v70,2013-03-11 10:46:00,
2013-03-11 06:51:00,37.0,33.5,30.28,West,270,1.0,7.0,87,0.00,,,0.00,Weather View 32 v70,2013-03-11 10:51:00,
2013-03-11 06:56:00,37.0,33.5,30.29,SSW,202,0.0,7.0,87,0.00,,,0.00,Weather View 32 v70,2013-03-11 10:56:00,
2013-03-11 07:01:00,37.0,33.5,30.28,South,180,4.0,7.0,87,0.00,,,0.00,Weather View 32 v70,2013-03-11 11:01:00,
2013-03-11 07:06:00,37.0,33.5,30.28,South,180,0.0,7.0,87,0.00,,,0.00,Weather View 32 v70,2013-03-11 11:06:00,
2013-03-11 07:11:00,37.0,33.5,30.28,South,180,0.0,7.0,87,0.00,,,0.00,Weather View 32 v70,2013-03-11 11:11:00,
2013-03-11 07:16:00,37.0,33.5,30.28,SW,225,0.0,7.0,87,0.00,,,0.00,Weather View 32 v70,2013-03-11 11:16:00,
2013-03-11 07:22:00,37.0,34.3,30.28,SW,225,1.0,7.0,90,0.00,,,0.00,Weather View 32 v70,2013-03-11 11:22:00,
2013-03-11 07:27:00,37.0,35.7,30.28,SW,225,0.0,7.0,95,0.00,,,0.00,Weather View 32 v70,2013-03-11 11:27:00,
2013-03-11 07:32:00,37.0,36.5,30.28,SSW,202,3.0,7.0,98,0.00,,,0.00,Weather View 32 v70,2013-03-11 11:32:00,
2013-03-11 07:37:00,37.0,36.2,30.27,SSE,158,0.0,7.0,97,0.00,,,0.00,Weather View 32 v70,2013-03-11 11:37:00,
2013-03-11 07:42:00,37.0,33.5,30.27,SE,135,0.0,7.0,87,0.00,,,0.00,Weather View 32 v70,2013-03-11 11:42:00,
2013-03-11 07:47:00,37.0,34.9,30.28,SSW,202,0.0,7.0,92,0.00,,,0.00,Weather View 32 v70,2013-03-11 11:47:00,
2013-03-11 07:52:00,37.0,35.7,30.28,SSE,158,0.0,5.0,95,0.00,,,0.00,Weather View 32 v70,2013-03-11 11:52:00,
2013-03-11 07:57:00,37.0,35.7,30.27,SSE,158,0.0,5.0,95,0.00,,,0.00,Weather View 32 v70,2013-03-11 11:57:00,
2013-03-11 08:02:00,37.0,34.9,30.28,West,270,0.0,5.0,92,0.00,,,0.00,Weather View 32 v70,2013-03-11 12:02:00,
2013-03-11 08:07:00,37.0,35.7,30.28,ESE,112,0.0,4.0,95,0.00,,,0.00,Weather View 32 v70,2013-03-11 12:07:00,
2013-03-11 08:12:00,37.0,34.9,30.27,ESE,112,0.0,4.0,92,0.00,,,0.00,Weather View 32 v70,2013-03-11 12:12:00,
2013-03-11 08:17:00,37.0,35.7,30.27,SE,135,0.0,4.0,95,0.00,,,0.00,Weather View 32 v70,2013-03-11 12:17:00,
2013-03-11 08:22:00,37.0,33.5,30.27,South,180,0.0,4.0,87,0.00,,,0.00,Weather View 32 v70,2013-03-11 12:22:00,
2013-03-11 08:27:00,38.0,34.5,30.27,South,180,0.0,4.0,87,0.00,,,0.00,Weather View 32 v70,2013-03-11 12:27:00,
2013-03-11 08:32:00,38.0,36.7,30.28,SW,225,0.0,4.0,95,0.00,,,0.00,Weather View 32 v70,2013-03-11 12:32:00,
2013-03-11 08:37:00,38.0,37.0,30.27,SSE,158,0.0,3.0,96,0.00,,,0.00,Weather View 32 v70,2013-03-11 12:37:00,
2013-03-11 08:42:00,38.0,34.5,30.28,SW,225,0.0,3.0,87,0.00,,,0.00,Weather View 32 v70,2013-03-11 12:42:00,
2013-03-11 08:47:00,39.0,36.9,30.27,ESE,112,0.0,4.0,92,0.00,,,0.00,Weather View 32 v70,2013-03-11 12:47:00,
2013-03-11 08:52:00,39.0,36.9,30.27,SSE,158,1.0,5.0,92,0.00,,,0.00,Weather View 32 v70,2013-03-11 12:52:00,
2013-03-11 08:57:00,39.0,35.5,30.27,SSW,202,4.0,7.0,87,0.00,,,0.00,Weather View 32 v70,2013-03-11 12:57:00,
2013-03-11 09:02:00,40.0,38.4,30.27,South,180,4.0,7.0,94,0.00,,,0.00,Weather View 32 v70,2013-03-11 13:02:00,
2013-03-11 09:07:00,40.0,35.6,30.26,South,180,3.0,7.0,84,0.00,,,0.00,Weather View 32 v70,2013-03-11 13:07:00,
2013-03-11 09:12:00,40.0,37.9,30.26,WSW,248,2.0,7.0,92,0.00,,,0.00,Weather View 32 v70,2013-03-11 13:12:00,
2013-03-11 09:17:00,40.0,35.6,30.26,SW,225,0.0,7.0,84,0.00,,,0.00,Weather View 32 v70,2013-03-11 13:17:00,
2013-03-11 09:22:00,40.0,35.2,30.27,WSW,248,4.0,7.0,83,0.00,,,0.00,Weather View 32 v70,2013-03-11 13:22:00,
2013-03-11 09:27:00,40.0,35.9,30.27,SSW,202,2.0,7.0,85,0.00,,,0.00,Weather View 32 v70,2013-03-11 13:27:00,
2013-03-11 09:32:00,40.0,36.7,30.27,South,180,4.0,7.0,88,0.00,,,0.00,Weather View 32 v70,2013-03-11 13:32:00,
2013-03-11 09:37:00,40.0,35.9,30.27,South,180,0.0,7.0,85,0.00,,,0.00,Weather View 32 v70,2013-03-11 13:37:00,
2013-03-11 09:42:00,41.0,36.8,30.27,South,180,4.0,7.0,85,0.00,,,0.00,Weather View 32 v70,2013-03-11 13:42:00,
2013-03-11 09:47:00,41.0,36.5,30.27,South,180,3.0,7.0,84,0.00,,,0.00,Weather View 32 v70,2013-03-11 13:47:00,
2013-03-11 09:52:00,41.0,35.9,30.27,SSW,202,0.0,7.0,82,0.00,,,0.00,Weather View 32 v70,2013-03-11 13:52:00,
2013-03-11 09:57:00,41.0,35.9,30.27,SSW,202,5.0,7.0,82,0.00,,,0.00,Weather View 32 v70,2013-03-11 13:57:00,
2013-03-11 10:02:00,41.0,35.6,30.27,SSW,202,2.0,9.0,81,0.00,,,0.00,Weather View 32 v70,2013-03-11 14:02:00,
2013-03-11 10:08:00,41.0,36.8,30.28,West,270,1.0,9.0,85,0.00,,,0.00,Weather View 32 v70,2013-03-11 14:08:00,
2013-03-11 10:13:00,41.0,38.0,30.27,SW,225,2.0,9.0,89,0.00,,,0.00,Weather View 32 v70,2013-03-11 14:13:00,
2013-03-11 10:18:00,42.0,36.9,30.27,SW,225,0.0,9.0,82,0.00,,,0.00,Weather View 32 v70,2013-03-11 14:18:00,
2013-03-11 10:24:00,42.0,38.4,30.28,SSW,202,3.0,9.0,87,0.00,,,0.00,Weather View 32 v70,2013-03-11 14:24:00,
2013-03-11 10:29:00,42.0,36.9,30.28,SSW,202,4.0,9.0,82,0.00,,,0.00,Weather View 32 v70,2013-03-11 14:29:00,
2013-03-11 10:34:00,42.0,36.3,30.28,SSE,158,2.0,10.0,80,0.00,,,0.00,Weather View 32 v70,2013-03-11 14:34:00,
2013-03-11 10:39:00,42.0,36.6,30.28,SSW,202,7.0,10.0,81,0.00,,,0.00,Weather View 32 v70,2013-03-11 14:39:00,
2013-03-11 10:44:00,42.0,38.7,30.28,SW,225,0.0,10.0,88,0.00,,,0.00,Weather View 32 v70,2013-03-11 14:44:00,
2013-03-11 10:49:00,42.0,38.7,30.28,South,180,5.0,11.0,88,0.00,,,0.00,Weather View 32 v70,2013-03-11 14:49:00,
2013-03-11 10:54:00,42.0,38.7,30.27,West,270,3.0,11.0,88,0.00,,,0.00,Weather View 32 v70,2013-03-11 14:54:00,
2013-03-11 10:59:00,42.0,37.5,30.28,SSW,202,5.0,11.0,84,0.00,,,0.00,Weather View 32 v70,2013-03-11 14:59:00,
2013-03-11 11:04:00,42.0,38.4,30.28,SSW,202,2.0,11.0,87,0.00,,,0.00,Weather View 32 v70,2013-03-11 15:04:00,
2013-03-11 11:09:00,43.0,38.8,30.28,WSW,248,0.0,11.0,85,0.00,,,0.00,Weather View 32 v70,2013-03-11 15:09:00,
2013-03-11 11:14:00,43.0,39.1,30.28,WSW,248,4.0,11.0,86,0.00,,,0.00,Weather View 32 v70,2013-03-11 15:14:00,
2013-03-11 11:19:00,43.0,37.2,30.28,SW,225,5.0,11.0,80,0.00,,,0.00,Weather View 32 v70,2013-03-11 15:19:00,
2013-03-11 11:24:00,43.0,38.8,30.28,SW,225,3.0,11.0,85,0.00,,,0.00,Weather View 32 v70,2013-03-11 15:24:00,
2013-03-11 11:29:00,43.0,37.6,30.27,SW,225,1.0,11.0,81,0.00,,,0.00,Weather View 32 v70,2013-03-11 15:29:00,
2013-03-11 11:34:00,43.0,37.6,30.27,SSE,158,4.0,11.0,81,0.00,,,0.00,Weather View 32 v70,2013-03-11 15:34:00,
2013-03-11 11:39:00,44.0,40.7,30.27,South,180,5.0,11.0,88,0.00,,,0.00,Weather View 32 v70,2013-03-11 15:39:00,
2013-03-11 11:44:00,44.0,38.9,30.27,SSW,202,3.0,11.0,82,0.00,,,0.00,Weather View 32 v70,2013-03-11 15:44:00,
2013-03-11 11:49:00,45.0,40.1,30.27,SSW,202,4.0,11.0,83,0.00,,,0.00,Weather View 32 v70,2013-03-11 15:49:00,
2013-03-11 11:55:00,45.0,39.2,30.27,SW,225,7.0,11.0,80,0.00,,,0.00,Weather View 32 v70,2013-03-11 15:55:00,
2013-03-11 12:00:00,45.0,38.2,30.27,South,180,3.0,11.0,77,0.00,,,0.00,Weather View 32 v70,2013-03-11 16:00:00,
2013-03-11 12:05:00,45.0,38.9,30.27,SW,225,3.0,11.0,79,0.00,,,0.00,Weather View 32 v70,2013-03-11 16:05:00,
2013-03-11 12:10:00,45.0,38.9,30.27,SSE,158,2.0,11.0,79,0.00,,,0.00,Weather View 32 v70,2013-03-11 16:10:00,
2013-03-11 12:15:00,46.0,39.5,30.26,South,180,7.0,11.0,78,0.00,,,0.00,Weather View 32 v70,2013-03-11 16:15:00,
2013-03-11 12:20:00,47.0,40.2,30.26,South,180,6.0,11.0,77,0.00,,,0.00,Weather View 32 v70,2013-03-11 16:20:00,
2013-03-11 12:25:00,47.0,39.8,30.26,South,180,2.0,12.0,76,0.00,,,0.00,Weather View 32 v70,2013-03-11 16:25:00,
2013-03-11 12:30:00,47.0,39.8,30.26,SW,225,5.0,12.0,76,0.00,,,0.00,Weather View 32 v70,2013-03-11 16:30:00,
2013-03-11 12:35:00,47.0,39.8,30.26,South,180,2.0,13.0,76,0.00,,,0.00,Weather View 32 v70,2013-03-11 16:35:00,
2013-03-11 12:40:00,48.0,40.1,30.26,SSW,202,1.0,13.0,74,0.00,,,0.00,Weather View 32 v70,2013-03-11 16:40:00,
2013-03-11 12:45:00,48.0,40.1,30.25,SW,225,0.0,13.0,74,0.00,,,0.00,Weather View 32 v70,2013-03-11 16:45:00,
2013-03-11 12:50:00,48.0,39.0,30.25,SSW,202,1.0,13.0,71,0.00,,,0.00,Weather View 32 v70,2013-03-11 16:50:00,
2013-03-11 12:55:00,48.0,39.4,30.25,SW,225,1.0,13.0,72,0.00,,,0.00,Weather View 32 v70,2013-03-11 16:55:00,
2013-03-11 13:00:00,48.0,39.7,30.26,South,180,1.0,13.0,73,0.00,,,0.00,Weather View 32 v70,2013-03-11 17:00:00,
2013-03-11 13:05:00,48.0,39.7,30.26,SSE,158,1.0,13.0,73,0.00,,,0.00,Weather View 32 v70,2013-03-11 17:05:00,
2013-03-11 13:11:00,48.0,39.4,30.26,SSW,202,5.0,13.0,72,0.00,,,0.00,Weather View 32 v70,2013-03-11 17:11:00,
2013-03-11 13:16:00,48.0,38.7,30.25,WSW,248,6.0,13.0,70,0.00,,,0.00,Weather View 32 v70,2013-03-11 17:16:00,
2013-03-11 13:21:00,48.0,39.4,30.25,ESE,112,0.0,13.0,72,0.00,,,0.00,Weather View 32 v70,2013-03-11 17:21:00,
2013-03-11 13:26:00,49.0,40.4,30.25,South,180,2.0,13.0,72,0.00,,,0.00,Weather View 32 v70,2013-03-11 17:26:00,
2013-03-11 13:31:00,49.0,40.7,30.25,South,180,2.0,13.0,73,0.00,,,0.00,Weather View 32 v70,2013-03-11 17:31:00,
2013-03-11 13:36:00,50.0,41.3,30.25,SSW,202,1.0,11.0,72,0.00,,,0.00,Weather View 32 v70,2013-03-11 17:36:00,
2013-03-11 13:41:00,50.0,40.6,30.25,South,180,3.0,11.0,70,0.00,,,0.00,Weather View 32 v70,2013-03-11 17:41:00,
2013-03-11 13:46:00,50.0,41.3,30.24,WSW,248,1.0,11.0,72,0.00,,,0.00,Weather View 32 v70,2013-03-11 17:46:00,
2013-03-11 13:51:00,50.0,41.3,30.24,South,180,1.0,11.0,72,0.00,,,0.00,Weather View 32 v70,2013-03-11 17:51:00,
2013-03-11 13:57:00,49.0,40.4,30.23,SW,225,3.0,12.0,72,0.00,,,0.00,Weather View 32 v70,2013-03-11 17:57:00,
2013-03-11 14:02:00,49.0,40.4,30.23,South,180,3.0,12.0,72,0.00,,,0.00,Weather View 32 v70,2013-03-11 18:02:00,
2013-03-11 14:07:00,49.0,40.7,30.23,SSW,202,3.0,12.0,73,0.00,,,0.00,Weather View 32 v70,2013-03-11 18:07:00,
2013-03-11 14:12:00,49.0,40.0,30.23,South,180,4.0,12.0,71,0.00,,,0.00,Weather View 32 v70,2013-03-11 18:12:00,
2013-03-11 14:17:00,49.0,39.6,30.23,SSW,202,2.0,12.0,70,0.00,,,0.00,Weather View 32 v70,2013-03-11 18:17:00,
2013-03-11 14:22:00,49.0,38.5,30.23,SSW,202,0.0,12.0,67,0.00,,,0.00,Weather View 32 v70,2013-03-11 18:22:00,
2013-03-11 14:27:00,49.0,38.9,30.22,SW,225,3.0,12.0,68,0.00,,,0.00,Weather View 32 v70,2013-03-11 18:27:00,
2013-03-11 14:32:00,50.0,39.5,30.22,SSW,202,5.0,12.0,67,0.00,,,0.00,Weather View 32 v70,2013-03-11 18:32:00,
2013-03-11 14:37:00,50.0,39.5,30.22,South,180,0.0,12.0,67,0.00,,,0.00,Weather View 32 v70,2013-03-11 18:37:00,
2013-03-11 14:42:00,50.0,39.1,30.22,SSE,158,3.0,12.0,66,0.00,,,0.00,Weather View 32 v70,2013-03-11 18:42:00,
2013-03-11 14:47:00,50.0,41.0,30.22,SE,135,2.0,12.0,71,0.00,,,0.00,Weather View 32 v70,2013-03-11 18:47:00,
2013-03-11 14:52:00,50.0,41.0,30.22,South,180,7.0,12.0,71,0.00,,,0.00,Weather View 32 v70,2013-03-11 18:52:00,
2013-03-11 14:57:00,50.0,40.6,30.21,South,180,4.0,9.0,70,0.00,,,0.00,Weather View 32 v70,2013-03-11 18:57:00,
2013-03-11 15:02:00,50.0,40.2,30.21,SSW,202,3.0,9.0,69,0.00,,,0.00,Weather View 32 v70,2013-03-11 19:02:00,
2013-03-11 15:07:00,51.0,40.8,30.21,SE,135,1.0,9.0,68,0.00,,,0.00,Weather View 32 v70,2013-03-11 19:07:00,
2013-03-11 15:12:00,51.0,40.4,30.21,SSW,202,4.0,9.0,67,0.00,,,0.00,Weather View 32 v70,2013-03-11 19:12:00,
2013-03-11 15:17:00,51.0,38.8,30.21,East,90,2.0,10.0,63,0.00,,,0.00,Weather View 32 v70,2013-03-11 19:17:00,
2013-03-11 15:22:00,51.0,39.2,30.21,SSW,202,1.0,12.0,64,0.00,,,0.00,Weather View 32 v70,2013-03-11 19:22:00,
2013-03-11 15:27:00,51.0,38.8,30.21,SW,225,3.0,12.0,63,0.00,,,0.00,Weather View 32 v70,2013-03-11 19:27:00,
2013-03-11 15:32:00,50.0,37.9,30.21,SSW,202,4.0,15.0,63,0.00,,,0.00,Weather View 32 v70,2013-03-11 19:32:00,
2013-03-11 15:37:00,50.0,38.7,30.21,ESE,112,0.0,15.0,65,0.00,,,0.00,Weather View 32 v70,2013-03-11 19:37:00,
2013-03-11 15:42:00,50.0,38.3,30.21,SSE,158,4.0,15.0,64,0.00,,,0.00,Weather View 32 v70,2013-03-11 19:42:00,
2013-03-11 15:47:00,50.0,38.7,30.21,South,180,5.0,15.0,65,0.00,,,0.00,Weather View 32 v70,2013-03-11 19:47:00,
2013-03-11 15:52:00,50.0,38.7,30.21,SW,225,5.0,15.0,65,0.00,,,0.00,Weather View 32 v70,2013-03-11 19:52:00,
2013-03-11 15:57:00,50.0,38.7,30.21,South,180,5.0,15.0,65,0.00,,,0.00,Weather View 32 v70,2013-03-11 19:57:00,
2013-03-11 16:02:00,50.0,39.1,30.21,SE,135,3.0,15.0,66,0.00,,,0.00,Weather View 32 v70,2013-03-11 20:02:00,
2013-03-11 16:07:00,50.0,39.5,30.21,South,180,2.0,15.0,67,0.00,,,0.00,Weather View 32 v70,2013-03-11 20:07:00,
2013-03-11 16:12:00,50.0,38.7,30.20,ESE,112,3.0,15.0,65,0.00,,,0.00,Weather View 32 v70,2013-03-11 20:12:00,
2013-03-11 16:17:00,50.0,39.1,30.21,SW,225,2.0,15.0,66,0.00,,,0.00,Weather View 32 v70,2013-03-11 20:17:00,
2013-03-11 16:22:00,49.0,39.3,30.21,South,180,3.0,15.0,69,0.00,,,0.00,Weather View 32 v70,2013-03-11 20:22:00,
2013-03-11 16:27:00,49.0,40.0,30.21,South,180,1.0,15.0,71,0.00,,,0.00,Weather View 32 v70,2013-03-11 20:27:00,
2013-03-11 16:32:00,49.0,41.1,30.20,SW,225,2.0,12.0,74,0.00,,,0.00,Weather View 32 v70,2013-03-11 20:32:00,
2013-03-11 16:37:00,48.0,40.1,30.20,South,180,3.0,12.0,74,0.00,,,0.00,Weather View 32 v70,2013-03-11 20:37:00,
2013-03-11 16:42:00,48.0,38.7,30.20,ESE,112,2.0,16.0,70,0.00,,,0.00,Weather View 32 v70,2013-03-11 20:42:00,
2013-03-11 16:47:00,47.0,38.8,30.20,SSW,202,5.0,16.0,73,0.00,,,0.00,Weather View 32 v70,2013-03-11 20:47:00,
2013-03-11 16:52:00,47.0,38.8,30.20,SE,135,2.0,16.0,73,0.00,,,0.00,Weather View 32 v70,2013-03-11 20:52:00,
2013-03-11 16:57:00,47.0,38.8,30.20,SW,225,0.0,16.0,73,0.00,,,0.00,Weather View 32 v70,2013-03-11 20:57:00,
2013-03-11 17:02:00,47.0,39.1,30.20,SW,225,5.0,16.0,74,0.00,,,0.00,Weather View 32 v70,2013-03-11 21:02:00,
2013-03-11 17:07:00,47.0,39.5,30.20,South,180,3.0,16.0,75,0.00,,,0.00,Weather View 32 v70,2013-03-11 21:07:00,
2013-03-11 17:12:00,47.0,39.1,30.20,SE,135,3.0,16.0,74,0.00,,,0.00,Weather View 32 v70,2013-03-11 21:12:00,
2013-03-11 17:17:00,46.0,38.5,30.20,South,180,0.0,16.0,75,0.00,,,0.00,Weather View 32 v70,2013-03-11 21:17:00,
2013-03-11 17:23:00,46.0,38.5,30.20,SSW,202,0.0,16.0,75,0.00,,,0.00,Weather View 32 v70,2013-03-11 21:23:00,
2013-03-11 17:28:00,46.0,40.8,30.20,SW,225,4.0,16.0,82,0.00,,,0.00,Weather View 32 v70,2013-03-11 21:28:00,
2013-03-11 17:33:00,46.0,41.1,30.20,SW,225,2.0,16.0,83,0.00,,,0.00,Weather View 32 v70,2013-03-11 21:33:00,
2013-03-11 17:38:00,46.0,41.1,30.20,SSW,202,0.0,16.0,83,0.00,,,0.00,Weather View 32 v70,2013-03-11 21:38:00,
2013-03-11 17:43:00,46.0,39.2,30.20,SW,225,2.0,12.0,77,0.00,,,0.00,Weather View 32 v70,2013-03-11 21:43:00,
2013-03-11 17:48:00,46.0,39.2,30.20,SE,135,0.0,12.0,77,0.00,,,0.00,Weather View 32 v70,2013-03-11 21:48:00,
2013-03-11 17:53:00,46.0,39.5,30.20,SW,225,2.0,12.0,78,0.00,,,0.00,Weather View 32 v70,2013-03-11 21:53:00,
2013-03-11 17:58:00,45.0,38.9,30.20,SW,225,4.0,12.0,79,0.00,,,0.00,Weather View 32 v70,2013-03-11 21:58:00,
2013-03-11 18:03:00,45.0,40.5,30.20,South,180,0.0,12.0,84,0.00,,,0.00,Weather View 32 v70,2013-03-11 22:03:00,
2013-03-11 18:08:00,45.0,41.4,30.20,South,180,0.0,12.0,87,0.00,,,0.00,Weather View 32 v70,2013-03-11 22:08:00,
2013-03-11 18:13:00,45.0,41.7,30.20,SW,225,0.0,12.0,88,0.00,,,0.00,Weather View 32 v70,2013-03-11 22:13:00,
2013-03-11 18:18:00,45.0,41.7,30.19,SW,225,0.0,12.0,88,0.00,,,0.00,Weather View 32 v70,2013-03-11 22:18:00,
2013-03-11 18:23:00,45.0,41.9,30.20,SSE,158,2.0,11.0,89,0.00,,,0.00,Weather View 32 v70,2013-03-11 22:23:00,
2013-03-11 18:28:00,45.0,41.9,30.19,South,180,0.0,11.0,89,0.00,,,0.00,Weather View 32 v70,2013-03-11 22:28:00,
2013-03-11 18:33:00,45.0,41.9,30.20,SW,225,0.0,8.0,89,0.00,,,0.00,Weather View 32 v70,2013-03-11 22:33:00,
2013-03-11 18:38:00,44.0,41.3,30.19,ENE,68,0.0,8.0,90,0.00,,,0.00,Weather View 32 v70,2013-03-11 22:38:00,
2013-03-11 18:43:00,44.0,38.2,30.20,ESE,112,0.0,8.0,80,0.00,,,0.00,Weather View 32 v70,2013-03-11 22:43:00,
2013-03-11 18:48:00,44.0,37.9,30.20,SSE,158,0.0,8.0,79,0.00,,,0.00,Weather View 32 v70,2013-03-11 22:48:00,
2013-03-11 18:53:00,44.0,38.2,30.20,SW,225,0.0,8.0,80,0.00,,,0.00,Weather View 32 v70,2013-03-11 22:53:00,
2013-03-11 18:58:00,44.0,38.5,30.19,ENE,68,0.0,5.0,81,0.00,,,0.00,Weather View 32 v70,2013-03-11 22:58:00,
2013-03-11 19:03:00,44.0,38.5,30.20,WSW,248,0.0,5.0,81,0.00,,,0.00,Weather View 32 v70,2013-03-11 23:03:00,
2013-03-11 19:08:00,43.0,37.6,30.19,East,90,0.0,5.0,81,0.00,,,0.00,Weather View 32 v70,2013-03-11 23:08:00,
2013-03-11 19:13:00,43.0,37.9,30.19,SE,135,0.0,7.0,82,0.00,,,0.00,Weather View 32 v70,2013-03-11 23:13:00,
2013-03-11 19:18:00,43.0,37.9,30.20,SSW,202,0.0,7.0,82,0.00,,,0.00,Weather View 32 v70,2013-03-11 23:18:00,
2013-03-11 19:23:00,43.0,37.9,30.20,WSW,248,0.0,7.0,82,0.00,,,0.00,Weather View 32 v70,2013-03-11 23:23:00,
2013-03-11 19:28:00,43.0,37.9,30.20,East,90,0.0,7.0,82,0.00,,,0.00,Weather View 32 v70,2013-03-11 23:28:00,
2013-03-11 19:33:00,43.0,37.9,30.20,SW,225,0.0,7.0,82,0.00,,,0.00,Weather View 32 v70,2013-03-11 23:33:00,
2013-03-11 19:38:00,43.0,37.9,30.19,SSE,158,0.0,7.0,82,0.00,,,0.00,Weather View 32 v70,2013-03-11 23:38:00,
2013-03-11 19:43:00,43.0,38.2,30.19,ESE,112,0.0,7.0,83,0.00,,,0.00,Weather View 32 v70,2013-03-11 23:43:00,
2013-03-11 19:48:00,43.0,38.2,30.19,West,270,0.0,7.0,83,0.00,,,0.00,Weather View 32 v70,2013-03-11 23:48:00,
2013-03-11 19:53:00,43.0,38.2,30.20,SSE,158,0.0,7.0,83,0.00,,,0.00,Weather View 32 v70,2013-03-11 23:53:00,
2013-03-11 19:58:00,43.0,38.5,30.20,SW,225,2.0,7.0,84,0.00,,,0.00,Weather View 32 v70,2013-03-11 23:58:00,
2013-03-11 20:03:00,43.0,38.5,30.20,SE,135,0.0,7.0,84,0.00,,,0.00,Weather View 32 v70,2013-03-12 00:03:00,
2013-03-11 20:08:00,43.0,38.5,30.20,SW,225,0.0,7.0,84,0.00,,,0.00,Weather View 32 v70,2013-03-12 00:08:00,
2013-03-11 20:13:00,43.0,38.5,30.19,SE,135,0.0,5.0,84,0.00,,,0.00,Weather View 32 v70,2013-03-12 00:13:00,
2013-03-11 20:18:00,42.0,37.5,30.19,East,90,0.0,5.0,84,0.00,,,0.00,Weather View 32 v70,2013-03-12 00:18:00,
2013-03-11 20:23:00,42.0,37.5,30.19,ESE,112,0.0,5.0,84,0.00,,,0.00,Weather View 32 v70,2013-03-12 00:23:00,
2013-03-11 20:28:00,42.0,37.5,30.19,South,180,0.0,5.0,84,0.00,,,0.00,Weather View 32 v70,2013-03-12 00:28:00,
2013-03-11 20:33:00,42.0,37.8,30.20,SW,225,0.0,5.0,85,0.00,,,0.00,Weather View 32 v70,2013-03-12 00:33:00,
2013-03-11 20:38:00,42.0,37.8,30.20,SSE,158,0.0,6.0,85,0.00,,,0.00,Weather View 32 v70,2013-03-12 00:38:00,
2013-03-11 20:43:00,42.0,37.8,30.19,East,90,0.0,6.0,85,0.00,,,0.00,Weather View 32 v70,2013-03-12 00:43:00,
2013-03-11 20:48:00,42.0,37.8,30.19,SSE,158,0.0,6.0,85,0.00,,,0.00,Weather View 32 v70,2013-03-12 00:48:00,
2013-03-11 20:53:00,42.0,37.8,30.19,South,180,0.0,6.0,85,0.00,,,0.00,Weather View 32 v70,2013-03-12 00:53:00,
2013-03-11 20:58:00,42.0,38.1,30.19,ENE,68,0.0,6.0,86,0.00,,,0.00,Weather View 32 v70,2013-03-12 00:58:00,
2013-03-11 21:03:00,42.0,38.1,30.19,ESE,112,0.0,6.0,86,0.00,,,0.00,Weather View 32 v70,2013-03-12 01:03:00,
2013-03-11 21:08:00,42.0,38.1,30.18,SSE,158,0.0,6.0,86,0.00,,,0.00,Weather View 32 v70,2013-03-12 01:08:00,
2013-03-11 21:13:00,42.0,39.0,30.19,ENE,68,0.0,6.0,89,0.00,,,0.00,Weather View 32 v70,2013-03-12 01:13:00,
2013-03-11 21:18:00,42.0,39.3,30.19,SSW,202,0.0,6.0,90,0.00,,,0.00,Weather View 32 v70,2013-03-12 01:18:00,
2013-03-11 21:23:00,42.0,39.3,30.18,ENE,68,0.0,6.0,90,0.00,,,0.00,Weather View 32 v70,2013-03-12 01:23:00,
2013-03-11 21:28:00,42.0,39.3,30.18,ENE,68,0.0,6.0,90,0.00,,,0.00,Weather View 32 v70,2013-03-12 01:28:00,
2013-03-11 21:33:00,42.0,39.3,30.18,SSW,202,0.0,6.0,90,0.00,,,0.00,Weather View 32 v70,2013-03-12 01:33:00,
2013-03-11 21:38:00,42.0,39.3,30.18,East,90,0.0,4.0,90,0.00,,,0.00,Weather View 32 v70,2013-03-12 01:38:00,
2013-03-11 21:43:00,42.0,38.4,30.18,SE,135,0.0,0.0,87,0.00,,,0.00,Weather View 32 v70,2013-03-12 01:43:00,
2013-03-11 21:48:00,42.0,38.4,30.18,ESE,112,0.0,0.0,87,0.00,,,0.00,Weather View 32 v70,2013-03-12 01:48:00,
2013-03-11 21:53:00,41.0,37.4,30.19,ESE,112,0.0,0.0,87,0.00,,,0.00,Weather View 32 v70,2013-03-12 01:53:00,
2013-03-11 21:58:00,42.0,38.4,30.18,SE,135,0.0,0.0,87,0.00,,,0.00,Weather View 32 v70,2013-03-12 01:58:00,
2013-03-11 22:03:00,42.0,38.4,30.18,ESE,112,0.0,0.0,87,0.00,,,0.00,Weather View 32 v70,2013-03-12 02:03:00,
2013-03-11 22:08:00,42.0,38.4,30.18,SE,135,0.0,3.0,87,0.00,,,0.00,Weather View 32 v70,2013-03-12 02:08:00,
2013-03-11 22:13:00,41.0,37.4,30.18,ESE,112,0.0,3.0,87,0.00,,,0.00,Weather View 32 v70,2013-03-12 02:13:00,
2013-03-11 22:18:00,41.0,37.7,30.17,SE,135,0.0,3.0,88,0.00,,,0.00,Weather View 32 v70,2013-03-12 02:18:00,
2013-03-11 22:23:00,42.0,38.7,30.17,SE,135,0.0,3.0,88,0.00,,,0.00,Weather View 32 v70,2013-03-12 02:23:00,
2013-03-11 22:29:00,42.0,38.7,30.17,SSW,202,0.0,5.0,88,0.00,,,0.00,Weather View 32 v70,2013-03-12 02:29:00,
2013-03-11 22:34:00,42.0,38.7,30.17,SSE,158,0.0,5.0,88,0.00,,,0.00,Weather View 32 v70,2013-03-12 02:34:00,
2013-03-11 22:39:00,42.0,38.7,30.17,SE,135,0.0,5.0,88,0.00,,,0.00,Weather View 32 v70,2013-03-12 02:39:00,
2013-03-11 22:44:00,42.0,38.7,30.17,ESE,112,0.0,5.0,88,0.00,,,0.00,Weather View 32 v70,2013-03-12 02:44:00,
2013-03-11 22:49:00,42.0,38.7,30.17,SSW,202,0.0,5.0,88,0.00,,,0.00,Weather View 32 v70,2013-03-12 02:49:00,
2013-03-11 22:54:00,42.0,38.7,30.17,South,180,0.0,5.0,88,0.00,,,0.00,Weather View 32 v70,2013-03-12 02:54:00,
2013-03-11 22:59:00,42.0,38.7,30.16,SE,135,0.0,5.0,88,0.00,,,0.00,Weather View 32 v70,2013-03-12 02:59:00,
2013-03-11 23:04:00,42.0,38.7,30.16,SE,135,0.0,5.0,88,0.00,,,0.00,Weather View 32 v70,2013-03-12 03:04:00,
2013-03-11 23:09:00,42.0,38.7,30.17,ESE,112,4.0,5.0,88,0.00,,,0.00,Weather View 32 v70,2013-03-12 03:09:00,
2013-03-11 23:14:00,42.0,38.7,30.17,SE,135,0.0,5.0,88,0.00,,,0.00,Weather View 32 v70,2013-03-12 03:14:00,
2013-03-11 23:19:00,42.0,38.7,30.17,ENE,68,0.0,5.0,88,0.00,,,0.00,Weather View 32 v70,2013-03-12 03:19:00,
2013-03-11 23:24:00,42.0,39.0,30.17,ESE,112,0.0,5.0,89,0.00,,,0.00,Weather View 32 v70,2013-03-12 03:24:00,
2013-03-11 23:29:00,42.0,39.0,30.17,ENE,68,0.0,5.0,89,0.00,,,0.00,Weather View 32 v70,2013-03-12 03:29:00,
2013-03-11 23:34:00,42.0,39.0,30.17,SSE,158,0.0,5.0,89,0.00,,,0.00,Weather View 32 v70,2013-03-12 03:34:00,
2013-03-11 23:39:00,42.0,39.0,30.17,WNW,292,0.0,5.0,89,0.00,,,0.00,Weather View 32 v70,2013-03-12 03:39:00,
2013-03-11 23:44:00,42.0,39.0,30.17,ESE,112,0.0,5.0,89,0.00,,,0.00,Weather View 32 v70,2013-03-12 03:44:00,
2013-03-11 23:49:00,42.0,39.0,30.17,ESE,112,0.0,5.0,89,0.00,,,0.00,Weather View 32 v70,2013-03-12 03:49:00,
2013-03-11 23:54:00,42.0,39.0,30.17,North,0,0.0,4.0,89,0.00,,,0.00,Weather View 32 v70,2013-03-12 03:54:00,
2013-03-11 23:59:00,42.0,38.7,30.17,ESE,112,0.0,4.0,88,0.00,,,0.00,Weather View 32 v70,2013-03-12 03:59:00,